Weather in Nevinnomissk

Russia / Stavropol Krai     44°38′17″N   41°56′09″E
В апреле 2022 года жителям России запретили посещать сайт meteo.paraplan.net по решению Генеральной прокуратуры. Аудитория сайта уменьшилась в 10 раз. Владельцы сайта не видят смысла в поддержке погодного сервера в таких условиях. Сайт будет закрыт в октябре.
temp.,
°C
wind,
m/s
gust,
m/s
humid.,
%
clouds,
%
prec.,
mm/h
press.,
hPa
HPBL,
m
25 september, sun
sun2500:00+10wnw7158696 0.1 1019882
03:00+10w5138782 0.1 10201072
06:00+9w498828 0.4 1021409
09:00+12w712705 0.4 10221083
12:00+15wnw9125499 0.0 10211791
15:00+15wnw711538 0.0 10211462
18:00+13w37615 0.0 1021226
21:00+11wsw247428 0.0 102382
26 september, mon
mon2600:00+9sw11826 0.0 102311
03:00+8s11855 0.0 102311
06:00+8sse11860 0.0 102210
09:00+14se23595 0.0 1022405
12:00+19ese44455 0.0 10191028
15:00+20ese4540100 0.0 10181168
18:00+15e35575 0.0 101864
21:00+13e33665 0.0 101845
27 september, tue
tue2700:00+11ese346936 0.0 101755
03:00+10ese33749 0.0 101637
06:00+10ese33765 0.0 101529
09:00+16ese345517 0.0 1014300
12:00+22ese4440100 0.0 1012665
15:00+23ese4537100 0.0 1011816
18:00+18e345999 0.0 101050
21:00+16e3667100 0.0 101094
28 september, wed
wed2800:00+15ese3568100 0.0 100887
03:00+14ese3471100 0.0 100867
06:00+14ese3469100 0.0 100662
09:00+19ese3450100 0.0 1006227
12:00+25ese333398 0.0 1005543
15:00+27nw22275 0.0 10041151
18:00+20nw3550100 0.0 100773
21:00+18wsw224599 0.0 100938
29 september, thu
thu2900:00+17w2357100 0.0 101044
03:00+15nw23715 0.0 101132
06:00+14w118161 0.0 101213
09:00+19wnw36650 0.0 1012520
12:00+22wnw45515 0.0 10121101
15:00+24wnw45454 0.0 10111713
18:00+20nw335947 0.0 101350
21:00+19wnw1259100 0.1 101417